sat.trackr.live / text

‹ back to catalog

STARLINK-32747

NORAD 62600 · 2025-008P

PAYLOAD ACTIVE UNKNOWN

§ Identity

Operator
Country
US
Launch date
2025-01-13
Launch site
AFETR
Launch vehicle
Mass (kg)
RCS (m²)

Purposes: comms

External: N2YO · Heavens-Above · Gunter

§ Orbital elements

Epoch: 2026-05-25T05:04:54.419808Z

Period
94.27 min
Inclination
42.9989°
Eccentricity
0.0001106
Mean motion
15.27588793 rev/d
Perigee alt
482.3 km
Apogee alt
483.8 km
Semi-major
6,861.2 km
B*
4.9264e-4
RAAN
206.1003°
Arg perigee
279.4511°
Mean anomaly
80.6215°
Rev number
7,726

§ Raw data

STARLINK-327471 62600U 25008P   26145.21174097  .00013322  00000+0  49264-3 0  99962 62600  42.9989 206.1003 0001106 279.4511  80.6215 15.27588793 77265

JSON: /api/v1/satellites/62600 · /tle

For live sub-satellite position, see the globe view (requires WebGL).

§ Visibility from observer

Set your observer location to see the next 7 days of passes ≥ 10°. The values pass through the URL so the page stays shareable.

No JS? Fill the form by hand. The geolocation button needs JavaScript.